Regional Weather Roundup
Issued by NWS

Home | Current Version | Previous Version | Graphics & Text | Print | Product List | Glossary On
Versions: 1 2 3 4 5 6 7 8 9 10 11 12 13 14 15 16 17 18 19 20 21 22 23 24 25 26 27 28 29 30 31 32 33 34 35 36 37 38 39 40 41 42 43 44 45 46 47 48 49 50
000
ASUS43 KDMX 281907
RWRIA

WEATHER ROUNDUP FOR IOWA
NATIONAL WEATHER SERVICE DES MOINES IA
200 PM CDT MON JUL 28 2014

NOTE: "FAIR" INDICATES FEW OR NO CLOUDS BELOW 12,000 FEET WITH NO
SIGNIFICANT WEATHER AND/OR OBSTRUCTIONS TO VISIBILITY.

* - THESE STATIONS ARE NOT NWS STATIONS...THUS NOT UNDER NWS
QUALITY CONTROL.  THEY ALSO DO NOT REPORT WEATHER SUCH
AS PRECIPITATION OR FOG.

IAZ001>003-012>014-020>022-031>034-043>046-282000-
   NORTHWEST IOWA

CITY           SKY/WX    TMP DP  RH WIND       PRES   REMARKS
CARROLL *      PTSUNNY   70  61  73 VRB5      30.22F
CHEROKEE *     PTSUNNY   72  61  68 NW8       30.23F
DENISON *      MOSUNNY   72  61  68 VRB3      30.22F
LE MARS *      MOSUNNY   73  57  56 N8        30.24F
ORANGE CITY *  MOSUNNY   73  57  56 N6        30.25S
SHELDON *      PTSUNNY   72  59  64 NE6       30.23F
SIOUX CITY     PTSUNNY   75  58  55 NW7       30.24F
SPENCER        CLOUDY    71  57  61 N8        30.23F
STORM LAKE *   PTSUNNY   72  63  73 NW10      30.24F
$$

IAZ055>058-069>071-079>083-090>094-282000-
   SOUTHWEST IOWA

CITY           SKY/WX    TMP DP  RH WIND       PRES   REMARKS
ATLANTIC *     CLOUDY    70  61  73 VRB3      30.23F
AUDUBON *      MOSUNNY   73  63  68 W5        30.24F
CLARINDA *     PTSUNNY   72  61  68 CALM      30.26S
COUNCIL BLFS * SUNNY     75  61  60 NW8       30.24F
CRESTON *      PTSUNNY   72  55  56 NW8       30.24S
HARLAN  *      CLOUDY    72  61  68 N12       30.27F
LAMONI         PTSUNNY   73  55  53 VRB5      30.22F
RED OAK *      PTSUNNY   73  61  64 VRB5G12   30.24F
SHENANDOAH *   MOSUNNY   75  61  60 NW9       30.25F
$$

IAZ047>049-059>061-072>074-084-282000-
   CENTRAL IOWA

CITY           SKY/WX    TMP DP  RH WIND       PRES   REMARKS
AMES           CLOUDY    71  55  56 NW8       30.21S
ANKENY *       PTSUNNY   73  55  53 NW8       30.20F
CHARITON *     CLOUDY    72  55  56 N7        30.22S
DES MOINES     PTSUNNY   76  54  46 NW8       30.20F
GRINNELL*      CLOUDY    68  55  64 NW3       30.20S
KNOXVILLE *    CLOUDY    72  52  49 VRB6      30.19F
MARSHALLTOWN   CLOUDY    71  56  58 NW12      30.19F
PELLA *        MOSUNNY   75  57  53 NW5       30.21F
PERRY *        PTSUNNY   72  57  60 W3        30.22F
$$

IAZ004>006-015-016-023>025-035-036-282000-
   NORTH CENTRAL IOWA

CITY           SKY/WX    TMP DP  RH WIND       PRES   REMARKS
ALGONA *       PTSUNNY   72  57  60 N8        30.22S
CLARION *      CLOUDY    72  57  60 N8        30.20F
ESTHERVILLE    CLOUDY    70  58  65 N9        30.22F
FORT DODGE *   PTSUNNY   70  57  64 NW5       30.23S
MASON CITY     CLOUDY    73  55  53 N8        30.21F
FOREST CITY *  CLOUDY    72  54  53 N10       30.21S
IOWA FALLS *   CLOUDY    72  57  60 NW7       30.21S
$$

IAZ007>011-017>019-026>030-037>042-050>054-066-282000-
   NORTHEAST IOWA

CITY           SKY/WX    TMP DP  RH WIND       PRES   REMARKS
CEDAR RAPIDS   MOSUNNY   73  50  44 N13G21    30.15F
CHARLES CITY * CLOUDY    70  54  56 N8G14     30.19F
CLINTON *      MOSUNNY   72  52  49 NE10G17   30.17S
DECORAH *      CLOUDY    70  52  52 NW8       30.17S
DUBUQUE        PTSUNNY   69  50  50 N8        30.16S
MONTICELLO *   PTSUNNY   72  52  49 NW9       30.16S
OELWEIN *      SUNNY     72  52  49 N14       30.18F
WATERLOO       PTSUNNY   72  54  53 N10       30.16F
$$

IAZ064-065-067-068-078-282000-
   EAST CENTRAL IOWA

CITY           SKY/WX    TMP DP  RH WIND       PRES   REMARKS
DAVENPORT      MOSUNNY   73  51  46 N14       30.15F
IOWA CITY      PTSUNNY   74  53  48 N9G17     30.17F
MT. PLEASANT * MOSUNNY   73  50  43 N15G24    30.16F
MUSCATINE *    MOSUNNY   73  50  43 N13G20    30.15F
QUAD CITIES    MOSUNNY   72  47  40 NE13G21   30.14S
$$

IAZ062-063-075>077-085>089-095>099-282000-
   SOUTHEAST IOWA

CITY           SKY/WX    TMP DP  RH WIND       PRES   REMARKS
BURLINGTON     PTSUNNY   72  53  51 NW9G21    30.15S
FAIRFIELD *    PTSUNNY   72  52  49 N15G21    30.18S
FORT MADISON * MOSUNNY   72  54  53 N9G18     30.16S
KEOKUK *       MOSUNNY   73  55  53 N8G16     30.15S
OSKALOOSA *    CLOUDY    70  57  64 N9        30.20S
CENTERVILLE *  SUNNY     73  54  49 N9        30.22S
OTTUMWA        CLOUDY    71  56  58 N9        30.19S
WASHINGTON *   PTSUNNY   73  54  49 N12G21    30.17S
$$

ABBREVIATIONS USED IN REMARKS
   TC - TEMPERATURES IN CELSIUS
  WCI - WIND CHILL INDEX
   HX - HEAT INDEX
  VSB - VISIBILITY
$$



USA.gov is the U.S. government's official web portal to all federal, state and local government web resources and services.